Weather History for KOVE - September, 2013

Change the Weather History Date:

Wednesday, September 4, 2013

  Actual Average Record
Temperature  
Mean Temperature 74 °F -  
Max Temperature 88 °F 94 °F 108 °F (1955)
Min Temperature 61 °F 59 °F 47 °F (1990)
Cooling Degree Days 9    
Growing Degree Days 24 (Base 50)    
Moisture  
Dew Point 52 °F    
Average Humidity 51    
Maximum Humidity 78    
Minimum Humidity 21    
Precipitation  
Precipitation 0.00 in - - ()
Sea Level Pressure  
Sea Level Pressure 29.95 in    
Wind  
Wind Speed 6 mph (SSE)    
Max Wind Speed 12 mph    
Max Gust Speed -    
Visibility 10 miles    
Events      
Averages and records for this station are not official NWS values.
T = Trace of Precipitation, MM = Missing Value Source: NWS Daily Summary

Daily Weather History Graph

Daily Weather History Graph

Search for Another Location

Airport or City:

Trip Planner

Search our weather history database for the weather conditions in past years. The results will help you decide how hot, cold, wet, or windy it might be!

Date:

Astronomy

Sep. 04, 2013 Rise Set
Actual Time 6:37 AM PDT 7:32 PM PDT
Civil Twilight 6:10 AM PDT 7:59 PM PDT
Nautical Twilight 5:37 AM PDT 8:31 PM PDT
Astronomical Twilight 5:04 AM PDT 9:05 PM PDT
Moon 5:55 AM PDT (9/4) 6:54 PM PDT (9/4)
Length of Visible Light 13h 49m
Length of Day
12h 54m
Waning Crescent, 1% of the Moon is Illuminated
Sep 4
Waning Crescent
Sep 5
New
Sep 12
First Quarter
Sep 19
Full
Sep 26
Last Quarter

Hourly Weather History & Observations

Time (PDT) Temp. Heat Index Dew Point Humidity Pressure Visibility Wind Dir Wind Speed Gust Speed Precip Events Conditions
12:53 AM 68.0 °F - 51.1 °F 55% 29.94 in 10.0 mi ESE 8.1 mph - N/A   Clear
1:53 AM 66.0 °F - 50.0 °F 56% 29.95 in 10.0 mi South 6.9 mph - N/A   Clear
2:53 AM 64.0 °F - 54.0 °F 70% 29.96 in 10.0 mi South 5.8 mph - N/A   Clear
3:53 AM 62.1 °F - 54.0 °F 75% 29.96 in 10.0 mi SSE 3.5 mph - N/A   Clear
4:53 AM 62.1 °F - 54.0 °F 75% 29.96 in 10.0 mi ESE 4.6 mph - N/A   Clear
5:53 AM 62.1 °F - 54.0 °F 75% 29.97 in 10.0 mi SSE 4.6 mph - N/A   Clear
6:53 AM 61.0 °F - 54.0 °F 78% 30.00 in 10.0 mi Calm Calm - N/A   Clear
7:53 AM 64.0 °F - 55.0 °F 73% 30.01 in 10.0 mi Calm Calm - N/A   Clear
8:53 AM 68.0 °F - 55.9 °F 65% 30.01 in 10.0 mi SSE 9.2 mph - N/A   Clear
9:53 AM 71.1 °F - 55.9 °F 59% 30.02 in 10.0 mi South 6.9 mph - N/A   Clear
10:53 AM 73.9 °F - 57.0 °F 55% 30.02 in 10.0 mi Calm Calm - N/A   Clear
11:53 AM 78.1 °F - 57.0 °F 48% 30.01 in 10.0 mi North - - N/A   Clear
12:53 PM 81.0 °F 80.8 °F 55.9 °F 42% 29.99 in 10.0 mi Variable 4.6 mph - N/A   Clear
1:53 PM 82.9 °F 82.1 °F 55.9 °F 39% 29.98 in 10.0 mi SSW 6.9 mph - N/A   Clear
2:53 PM 84.0 °F - 52.0 °F 33% 29.96 in 10.0 mi Variable 3.5 mph - N/A   Clear
3:53 PM 86.0 °F 84.0 °F 53.1 °F 32% 29.93 in 10.0 mi South 6.9 mph - N/A   Clear
4:53 PM 87.1 °F - 42.1 °F 21% 29.91 in 10.0 mi SSW 6.9 mph - N/A   Clear
5:53 PM 87.1 °F - 46.0 °F 24% 29.89 in 10.0 mi SSE 6.9 mph - N/A   Clear
6:53 PM 84.9 °F - 43.0 °F 23% 29.88 in 10.0 mi SSE 9.2 mph - N/A   Clear
7:53 PM 79.0 °F - 48.0 °F 34% 29.88 in 10.0 mi SSE 6.9 mph - N/A   Clear
8:53 PM 77.0 °F - 45.0 °F 32% 29.89 in 10.0 mi East 5.8 mph - N/A   Clear
9:53 PM 73.9 °F - 52.0 °F 46% 29.91 in 10.0 mi SE 11.5 mph - N/A   Clear
10:53 PM 71.1 °F - 52.0 °F 51% 29.93 in 10.0 mi SSE 6.9 mph - N/A   Clear
11:53 PM 70.0 °F - 52.0 °F 53% 29.92 in 10.0 mi ESE 8.1 mph - N/A   Clear